Wind_Speed
24 23 22 22 21 20 20 19 19 19 18 19 20 19 19 15 16 14 12 9 6 4 3 3 2 4 5 8 8 7 6 8 5 4 4 7 5 6 16 12 12 11 10 12 9
29 27 25 23 23 22 22 21 21 21 21 21 21 21 20 16 16 13 12 8 6 3 3 4 4 5 5 6 5 3 6 4 4 5 7 11 8 3 18 13 10 8 5 9 9
31 30 29 28 27 26 26 26 23 24 24 24 22 22 19 16 16 11 5 6 7 5 5 5 6 5 5 6 6 6 5 5 5 7 10 9 10 11 12 8 9 9 6 7 8
33 32 32 31 32 31 29 30 29 26 26 26 24 22 19 15 9 9 11 9 9 6 5 6 7 6 7 8 10 8 7 9 6 4 10 10 13 9 9 7 9 10 11 11 8
34 33 34 33 33 34 33 32 33 30 28 27 27 24 19 16 14 14 13 11 10 6 6 9 8 8 7 7 10 11 7 10 10 11 10 8 7 8 10 8 10 10 11 12 9
33 33 32 34 34 35 35 33 32 33 28 29 28 25 22 17 15 11 11 12 11 7 8 10 12 11 8 8 9 9 8 11 11 14 13 5 5 5 8 8 5 10 8 6 6
34 33 31 32 34 36 35 34 33 33 30 29 29 27 25 15 16 13 12 14 13 10 10 13 12 8 9 7 13 9 9 9 8 10 8 3 6 5 8 4 6 3 9 12 13
33 32 31 30 30 32 34 33 35 32 32 30 29 28 26 18 17 13 14 16 14 11 15 13 12 10 8 10 11 10 10 10 6 5 5 4 1 5 5 3 3 4 6 12 13
35 32 31 30 29 29 29 30 33 33 29 29 28 28 26 21 20 17 18 19 16 14 16 13 10 9 9 8 11 12 12 7 4 6 7 4 3 9 8 4 4 4 6 4 9
37 35 31 31 30 28 28 28 29 34 35 32 29 24 21 15 10 17 22 23 21 18 15 13 11 9 9 10 11 10 10 9 6 5 5 7 8 13 9 7 5 4 7 6 4
40 37 34 31 30 29 26 26 27 30 34 32 23 18 22 16 17 17 25 25 23 20 14 14 11 10 7 9 9 8 8 6 3 5 7 8 10 10 6 4 5 5 9 10 9
44 39 37 34 32 30 26 24 26 29 31 29 26 28 18 15 18 21 28 30 28 20 18 13 13 9 10 9 6 8 10 8 6 7 6 8 10 9 4 4 3 3 5 10 14
47 43 39 36 33 31 27 24 21 26 28 31 26 25 24 27 21 23 30 30 29 22 20 16 8 13 12 9 8 8 9 6 4 5 9 10 11 9 11 7 6 7 9 12 16
50 46 42 40 35 31 28 25 20 19 17 28 26 28 32 29 36 29 28 33 26 26 18 17 16 13 11 12 12 12 10 8 7 10 11 5 4 5 6 8 10 12 14 14 15
53 49 44 41 39 32 29 22 17 9 6 8 17 22 25 36 24 33 31 35 27 22 24 18 17 19 16 12 11 12 10 8 9 10 8 8 9 5 5 6 9 12 15 18 16
50 51 48 44 40 32 27 21 15 7 10 7 9 14 21 28 32 21 37 34 27 22 24 16 16 12 10 11 11 11 8 9 6 6 9 5 7 5 8 6 7 11 12 17 22
41 50 51 46 37 33 29 21 12 14 6 10 11 15 15 22 27 26 42 38 33 28 26 22 18 13 11 9 9 12 11 9 5 6 4 4 6 11 5 6 8 12 14 14 16
33 41 48 49 38 36 30 27 20 15 26 8 12 10 15 19 20 26 32 34 33 27 25 24 20 19 15 13 10 15 13 7 5 4 4 4 6 2 6 9 7 9 14 16 19
35 31 43 48 43 37 34 35 27 24 17 16 8 12 15 21 17 25 32 37 36 31 19 27 19 14 18 14 12 13 12 9 3 3 3 6 6 9 2 7 6 3 6 9 10
34 35 44 40 45 45 43 48 33 21 26 23 15 12 16 25 17 26 29 33 34 31 25 13 18 14 17 15 16 10 13 7 7 4 5 4 5 6 2 2 7 5 4 1 5
35 40 43 42 41 45 54 52 33 24 31 20 18 12 11 18 26 27 21 14 36 35 29 19 14 11 17 17 16 15 10 7 4 4 3 3 5 5 4 2 4 4 4 4 3
40 49 41 45 47 55 55 48 27 33 31 23 17 27 14 17 23 25 27 25 15 32 37 27 17 15 15 14 17 15 14 13 10 6 7 5 12 13 15 10 6 7 6 5 7
51 47 40 40 55 53 52 47 43 29 35 26 23 18 22 16 12 25 24 27 12 31 35 33 21 15 13 15 17 14 17 15 14 14 15 8 6 8 11 9 13 11 11 10 10
56 38 37 38 58 69 39 39 45 38 26 30 30 18 18 16 20 11 25 22 31 13 30 33 24 30 22 17 14 16 20 21 18 13 16 18 20 16 18 15 12 11 10 13 13
64 47 60 59 56 63 47 40 44 37 39 30 28 29 20 12 14 15 20 21 24 33 22 31 30 25 24 19 18 20 19 19 23 23 22 18 17 15 13 15 17 17 14 14 17
64 54 56 36 56 69 59 46 43 47 38 38 29 36 26 19 11 16 12 18 15 27 30 31 22 23 23 21 21 23 21 21 23 22 21 21 21 13 15 16 17 19 19 17 17
61 50 45 49 39 50 59 55 39 42 35 35 33 27 39 26 17 18 10 10 14 17 25 27 25 20 19 17 16 20 28 23 21 25 23 22 21 17 21 22 23 23 23 24 25
Wind_Direction
270 270 268 269 269 266 263 262 263 270 274 283 294 301 305 311 309 311 308 285 265 260 281 277 251 251 245 266 279 285 268 273 279 238 235 303 346 338 324 320 315 302 258 258 249
266 266 267 266 265 262 259 258 264 268 275 282 289 297 302 304 304 305 292 265 235 245 268 270 249 258 256 267 293 248 282 276 252 244 288 289 300 281 306 317 325 312 252 254 254
263 263 264 263 262 261 262 262 260 267 274 280 285 291 298 300 307 306 280 245 234 256 261 252 241 236 224 242 252 255 271 276 279 275 269 258 239 279 260 304 318 306 286 283 247
264 264 262 263 263 261 262 267 267 267 273 278 282 285 291 291 299 285 283 255 242 251 249 230 223 212 213 237 251 257 270 275 292 285 258 258 254 281 290 290 305 296 280 266 240
268 264 262 262 262 263 262 263 268 269 273 277 279 281 282 280 282 278 268 245 237 239 232 217 207 201 216 231 249 262 264 270 258 239 288 269 254 273 298 305 305 288 267 246 233
268 267 265 262 260 259 262 263 267 270 270 274 276 278 278 276 282 270 258 226 228 222 232 215 198 207 216 226 243 260 259 283 264 227 253 257 264 273 296 307 280 300 262 214 194
267 268 267 265 261 261 259 261 260 266 269 270 273 274 273 279 272 260 239 213 218 211 217 207 205 204 225 250 251 257 265 277 250 251 259 237 262 287 311 308 276 87 106 141 136
263 264 266 266 266 263 262 259 262 261 266 268 270 272 273 266 259 250 224 203 208 207 209 209 216 225 240 257 263 257 256 244 234 240 223 247 10 330 300 300 265 220 106 135 137
259 261 264 263 265 265 263 261 262 263 263 264 266 269 275 264 253 237 216 197 197 198 204 214 229 246 262 262 256 238 253 240 206 206 249 241 279 315 327 308 230 235 239 130 160
253 256 258 262 263 264 267 266 266 264 264 262 261 264 255 248 234 219 202 195 193 196 207 223 237 249 250 243 250 215 228 227 235 227 214 237 264 293 311 289 210 212 228 203 145
249 251 253 256 259 260 263 271 273 269 262 256 248 251 243 234 228 211 200 192 191 198 203 221 220 230 239 223 226 206 210 218 219 198 217 256 278 285 296 255 237 204 215 200 184
247 245 248 251 254 257 259 265 273 271 265 255 251 239 224 210 206 202 196 193 196 198 202 212 223 226 211 226 196 202 219 220 226 197 250 267 281 273 303 135 164 197 190 204 203
242 243 243 246 248 255 258 264 272 277 274 258 252 245 231 225 211 204 199 196 203 200 204 210 220 213 210 226 221 225 239 218 238 255 260 272 249 235 211 210 215 191 187 194 214
237 238 238 241 245 246 252 261 268 280 284 272 262 255 241 225 230 213 205 205 201 209 208 221 220 193 217 231 231 232 237 241 250 263 261 239 233 199 218 242 239 209 207 208 206
231 232 232 234 239 242 247 255 258 270 274 260 231 229 228 213 225 213 206 201 206 199 201 214 216 224 231 236 225 235 248 239 248 273 246 224 252 193 221 258 242 225 219 216 220
233 226 227 228 232 235 241 242 230 213 241 236 233 218 219 207 207 208 200 202 203 207 212 215 208 193 211 225 229 227 218 237 252 231 233 210 248 224 231 240 250 232 238 230 221
240 227 221 222 220 226 229 218 194 223 236 228 228 228 217 209 194 201 192 195 191 192 205 210 212 226 235 218 235 193 192 218 203 199 241 168 229 263 273 270 264 237 231 242 233
241 231 218 216 208 214 213 200 218 237 218 207 211 221 213 189 197 190 191 194 198 197 200 200 205 217 219 216 222 203 204 223 239 203 170 193 241 165 290 294 285 271 245 252 251
231 226 223 211 199 198 198 199 221 218 213 209 207 216 207 193 192 192 199 200 197 193 187 201 206 200 217 220 197 206 210 216 203 226 263 247 259 270 302 299 282 265 238 234 234
221 213 230 212 192 186 198 218 215 209 216 215 211 200 210 191 195 195 196 209 204 202 198 200 205 216 211 213 215 199 206 181 206 216 234 180 254 286 318 123 112 49 38 39 227
208 213 228 211 191 189 206 215 211 207 205 211 208 208 207 200 203 200 205 207 203 208 204 207 197 198 215 213 208 213 207 210 215 234 262 268 273 238 199 247 302 343 343 351 320
199 213 218 205 195 200 212 210 207 205 203 207 211 210 214 206 207 211 209 205 218 207 205 201 206 209 208 214 221 215 221 214 231 202 227 254 264 258 256 269 249 286 296 286 288
193 209 214 208 202 207 212 214 209 202 204 209 211 209 211 205 208 214 218 216 207 203 204 201 209 209 215 229 228 225 228 224 225 243 237 235 261 197 184 259 289 265 267 266 271
191 191 193 203 213 212 213 215 212 210 211 212 212 200 200 199 203 211 219 220 212 215 204 209 209 215 223 226 223 221 232 233 238 238 257 250 281 265 258 265 257 267 265 257 263
192 200 202 198 209 211 207 211 210 205 207 208 211 204 199 180 194 213 209 206 208 213 211 214 217 222 228 238 243 240 243 238 233 244 251 267 280 271 266 264 252 256 258 268 264
195 194 199 213 214 205 206 207 211 206 211 204 208 216 205 198 191 182 178 190 202 207 214 214 215 221 230 232 241 247 248 249 247 252 247 260 270 273 276 274 267 259 258 261 258
192 194 203 201 215 208 203 205 207 208 210 212 208 208 215 203 204 186 174 172 187 195 213 210 206 216 226 232 239 246 250 248 242 254 252 259 275 282 281 282 274 262 260 266 275
Height
3148 3149 3148 3149 3150 3150 3150 3150 3150 3151 3150 3149 3149 3147 3147 3144 3142 3140 3138 3139 3138 3137 3136 3136 3136 3136 3137 3137 3137 3137 3139 3135 3135 3134 3133 3132 3131 3129 3129 3127 3124 3123 3122 3123 3122
3142 3143 3144 3144 3145 3145 3145 3145 3147 3146 3146 3146 3144 3143 3143 3140 3139 3137 3136 3135 3136 3135 3135 3135 3135 3135 3136 3137 3136 3137 3137 3135 3134 3134 3133 3131 3130 3128 3127 3125 3122 3120 3120 3120 3120
3136 3137 3138 3139 3139 3140 3141 3141 3139 3141 3142 3141 3140 3139 3138 3138 3136 3134 3133 3133 3133 3133 3133 3134 3133 3134 3136 3136 3135 3136 3135 3134 3133 3132 3131 3130 3128 3127 3126 3126 3122 3118 3116 3115 3115
3129 3131 3132 3133 3134 3134 3134 3137 3137 3135 3136 3136 3135 3135 3134 3134 3137 3132 3132 3131 3131 3131 3131 3132 3132 3133 3135 3135 3134 3134 3133 3132 3130 3130 3128 3127 3125 3126 3125 3124 3121 3118 3115 3114 3113
3124 3123 3125 3125 3127 3128 3129 3129 3131 3131 3131 3131 3131 3130 3130 3131 3130 3128 3128 3128 3129 3129 3129 3129 3130 3132 3133 3134 3133 3131 3132 3130 3129 3127 3125 3125 3125 3125 3124 3122 3120 3117 3114 3113 3113
3117 3117 3118 3119 3120 3120 3122 3123 3124 3125 3124 3126 3126 3125 3126 3126 3125 3124 3124 3125 3126 3126 3127 3127 3128 3129 3131 3131 3131 3131 3129 3128 3126 3125 3124 3125 3124 3124 3122 3121 3120 3116 3113 3114 3114
3112 3112 3112 3112 3113 3113 3113 3115 3116 3118 3119 3119 3120 3119 3120 3122 3121 3120 3120 3121 3123 3124 3125 3125 3126 3128 3128 3130 3129 3128 3127 3126 3125 3125 3124 3125 3123 3123 3121 3120 3120 3117 3115 3115 3117
3105 3106 3106 3106 3106 3106 3107 3108 3110 3110 3113 3113 3114 3114 3113 3116 3116 3117 3117 3118 3121 3121 3123 3124 3125 3127 3127 3127 3127 3127 3126 3123 3123 3123 3123 3124 3119 3122 3120 3120 3120 3119 3118 3117 3117
3097 3099 3101 3100 3100 3100 3100 3102 3102 3104 3104 3106 3108 3108 3109 3110 3110 3111 3113 3116 3119 3119 3120 3122 3124 3125 3125 3126 3125 3124 3120 3122 3122 3122 3123 3123 3120 3120 3119 3119 3119 3119 3118 3119 3119
3089 3092 3094 3095 3095 3095 3096 3096 3095 3097 3099 3099 3101 3106 3106 3105 3105 3106 3110 3113 3116 3118 3119 3121 3122 3123 3123 3123 3120 3120 3121 3121 3119 3121 3120 3121 3121 3119 3118 3118 3118 3118 3117 3119 3120
3081 3084 3087 3089 3090 3091 3091 3093 3094 3092 3091 3094 3094 3095 3099 3099 3101 3103 3107 3110 3113 3116 3118 3118 3121 3120 3120 3120 3118 3119 3120 3119 3120 3120 3121 3120 3119 3118 3116 3116 3116 3117 3118 3118 3120
3072 3075 3079 3082 3084 3086 3087 3087 3088 3087 3083 3085 3087 3090 3094 3094 3096 3098 3103 3107 3109 3112 3114 3118 3117 3118 3118 3118 3118 3119 3118 3117 3118 3118 3119 3118 3117 3115 3114 3115 3116 3117 3117 3118 3119
3061 3066 3071 3074 3077 3081 3082 3082 3083 3081 3080 3079 3081 3083 3088 3091 3092 3094 3098 3103 3106 3110 3110 3114 3115 3114 3116 3117 3117 3118 3117 3118 3117 3117 3116 3115 3112 3112 3113 3114 3114 3115 3116 3117 3118
3050 3056 3063 3066 3073 3075 3077 3078 3079 3078 3077 3072 3073 3073 3077 3082 3082 3090 3093 3099 3102 3105 3109 3111 3112 3112 3114 3115 3116 3115 3116 3117 3116 3116 3111 3113 3108 3109 3111 3111 3112 3113 3114 3116 3117
3035 3044 3051 3058 3062 3069 3073 3074 3076 3078 3076 3067 3062 3062 3066 3073 3078 3081 3087 3092 3097 3101 3104 3107 3107 3109 3110 3112 3113 3114 3113 3115 3115 3113 3113 3111 3111 3104 3108 3108 3109 3111 3112 3114 3115
3021 3031 3040 3047 3056 3063 3066 3069 3074 3080 3065 3059 3057 3057 3061 3064 3070 3074 3079 3087 3096 3098 3100 3104 3103 3105 3108 3108 3109 3110 3112 3113 3112 3112 3109 3108 3109 3102 3105 3107 3107 3107 3108 3110 3111
3011 3018 3027 3036 3050 3054 3059 3064 3072 3065 3058 3054 3054 3054 3058 3060 3064 3068 3071 3077 3082 3090 3093 3098 3100 3102 3104 3106 3106 3107 3109 3108 3110 3108 3105 3107 3108 3103 3104 3104 3104 3104 3104 3105 3106
3003 3009 3014 3025 3039 3044 3052 3057 3054 3047 3052 3050 3049 3052 3054 3058 3062 3065 3070 3074 3081 3084 3089 3092 3096 3098 3099 3102 3103 3104 3105 3103 3103 3103 3102 3106 3102 3099 3101 3100 3100 3100 3100 3100 3100
2995 3000 3005 3013 3027 3035 3043 3041 3032 3040 3044 3047 3047 3049 3052 3055 3059 3063 3066 3069 3073 3077 3083 3087 3091 3093 3096 3098 3102 3101 3102 3103 3104 3104 3105 3101 3100 3099 3099 3098 3098 3097 3097 3097 3097
2984 2992 2995 3006 3016 3025 3031 3021 3028 3032 3038 3041 3044 3045 3047 3048 3055 3058 3062 3063 3069 3074 3080 3083 3088 3090 3091 3095 3097 3098 3099 3101 3101 3101 3099 3097 3098 3096 3098 3097 3097 3097 3097 3096 3096
2978 2982 2986 2998 3009 3013 3004 3004 3020 3027 3032 3037 3039 3041 3044 3045 3049 3053 3054 3057 3063 3067 3076 3080 3083 3087 3089 3089 3091 3095 3096 3097 3098 3099 3096 3096 3095 3096 3097 3097 3096 3096 3096 3095 3095
2965 2970 2976 2988 2996 2993 2990 3000 3012 3018 3026 3031 3034 3036 3040 3042 3045 3050 3051 3055 3056 3063 3067 3075 3079 3081 3085 3085 3087 3089 3092 3094 3094 3096 3096 3096 3093 3092 3092 3092 3094 3094 3093 3093 3093
2951 2960 2967 2977 2978 2982 2989 2997 3005 3012 3019 3024 3029 3032 3036 3038 3042 3045 3046 3051 3054 3058 3062 3068 3072 3077 3080 3083 3083 3084 3087 3089 3090 3090 3089 3090 3088 3087 3087 3088 3089 3090 3090 3090 3090
2941 2949 2956 2965 2970 2975 2985 2991 2997 3005 3013 3018 3023 3029 3033 3034 3037 3039 3042 3046 3050 3055 3060 3063 3067 3069 3071 3074 3078 3080 3082 3084 3086 3086 3085 3084 3085 3086 3085 3085 3086 3085 3085 3086 3087
2922 2928 2933 2937 2950 2962 2976 2983 2991 2998 3004 3011 3018 3024 3029 3032 3034 3037 3037 3041 3045 3050 3054 3059 3061 3065 3068 3070 3072 3074 3075 3078 3078 3079 3080 3080 3079 3080 3081 3081 3081 3080 3081 3081 3082
2908 2916 2925 2934 2943 2947 2958 2970 2981 2991 2995 3001 3011 3018 3024 3027 3031 3033 3035 3038 3041 3045 3049 3052 3057 3060 3062 3065 3067 3068 3069 3071 3072 3074 3073 3074 3073 3075 3075 3075 3075 3075 3075 3075 3076
2898 2913 2921 2930 2936 2948 2949 2961 2975 2989 2994 3000 3007 3013 3018 3024 3028 3030 3032 3034 3037 3040 3044 3048 3052 3055 3058 3059 3061 3060 3061 3064 3066 3066 3068 3068 3069 3070 3068 3068 3068 3069 3069 3068 3068